This is the latest recevied weather packets stored in our database for station/object XE2RCS-1. If no packets are shown the sender has not sent any weather packets the latest 10 day(s).
| Time | Temp. | Humidity | Pressure | Rain* | Wind** | Luminosity | Snow |
|---|---|---|---|---|---|---|---|
| 1777880731 | 13.89° C | 76% | 1014 hPa | 0 mm | - | - | - |
| 1777880130 | 15° C | 76% | 1014 hPa | 0 mm | - | - | - |
| 1777879530 | 13.89° C | 81% | 1016 hPa | 0 mm | - | - | - |
| 1777878929 | 15° C | 81% | 1016 hPa | 0 mm | - | - | - |
| 1777878329 | 13.89° C | 73% | 1016 hPa | 0 mm | - | - | - |
| 1777877728 | 15° C | 73% | 1016 hPa | 0 mm | - | - | - |
| 1777877128 | 16.11° C | 73% | 1016 hPa | 0 mm | - | - | - |
| 1777876527 | 13.33° C | 78% | 1016 hPa | 0 mm | - | - | - |
| 1777875926 | 14.44° C | 78% | 1017 hPa | 0 mm | - | - | - |
| 1777875327 | 15.56° C | 78% | 1017 hPa | 0 mm | - | - | - |
| 1777874725 | 13.89° C | 72% | 1017 hPa | 0 mm | - | - | - |
| 1777874124 | 13.89° C | 71% | 1016 hPa | 0 mm | - | - | - |
| 1777873524 | 13.89° C | 71% | 1015 hPa | 0 mm | - | - | - |
| 1777872923 | 14.44° C | 70% | 1015 hPa | 0 mm | - | - | - |
| 1777872323 | 14.44° C | 69% | 1015 hPa | 0 mm | - | - | - |
| 1777871722 | 14.44° C | 69% | 1016 hPa | 0 mm | - | - | - |
| 1777871121 | 14.44° C | 69% | 1017 hPa | 0 mm | - | - | - |
| 1777870521 | 14.44° C | 69% | 1017 hPa | 0 mm | - | - | - |
| 1777869920 | 14.44° C | 69% | 1017 hPa | 0 mm | - | - | - |
| 1777869319 | 14.44° C | 69% | 1017 hPa | 0 mm | - | - | - |
| 1777868718 | 14.44° C | 10% | - | 0 mm | - | - | - |
| 1777868118 | 15° C | 68% | 1017 hPa | 0 mm | - | - | - |
| 1777867517 | 15° C | 67% | 1016 hPa | 0 mm | - | - | - |
| 1777866916 | 15° C | 67% | 1016 hPa | 0 mm | - | - | - |
| 1777866316 | 15° C | 80% | 1016 hPa | 0 mm | - | - | - |
* Rain latest hour (hover to see other rain measurements)
** Current wind speed in m/s (hover to see current wind gust speed)